Wind_Speed
62 65 65 63 60 57 52 45 40 38 38 37 34 30 30 26 22 22 22 22 24 25 25 25 24 24 25 26 26 27 27 26 26 27 28 29 30 32 34 36 37 39 40 40
60 64 62 58 56 54 49 45 42 41 40 37 33 29 30 27 23 23 23 23 23 24 25 25 25 25 26 27 27 27 26 25 25 26 28 30 32 34 36 37 38 39 40 41
57 60 57 54 53 52 49 45 42 40 38 36 32 29 29 27 25 24 24 24 24 24 24 25 25 26 27 27 27 26 25 25 26 28 29 31 33 35 36 37 38 40 41 41
53 57 53 51 50 49 46 43 41 40 38 36 33 29 27 27 26 26 26 25 25 24 24 25 26 27 27 26 26 25 25 26 28 29 31 33 34 35 36 38 39 40 41 42
53 56 52 49 46 44 43 43 42 40 38 35 32 29 26 28 28 27 27 26 26 25 26 26 27 27 26 26 26 27 27 29 30 31 33 34 35 36 37 39 40 41 42 43
49 52 49 44 43 43 44 44 42 40 38 35 32 29 27 29 28 28 27 27 27 27 27 27 27 28 28 28 28 28 29 30 31 33 34 34 36 37 39 40 41 43 44 45
49 48 49 46 45 45 46 45 42 40 38 34 31 30 29 29 29 28 27 27 27 27 28 28 29 29 28 28 29 29 30 31 32 33 34 35 37 39 40 41 43 44 46 47
47 45 47 47 46 45 45 44 42 40 37 33 31 30 30 29 29 27 27 27 27 27 28 29 30 29 29 28 29 30 31 32 33 34 35 37 38 40 41 43 44 46 48 50
46 44 46 47 44 42 42 41 39 37 35 32 31 30 29 28 28 27 26 26 26 27 28 30 30 29 29 29 29 30 31 32 33 35 36 38 39 41 42 44 46 49 52 56
45 44 45 46 45 42 40 38 38 36 34 33 31 30 30 28 27 27 26 25 25 26 27 28 28 27 28 28 29 30 31 32 34 36 37 39 40 42 44 46 50 53 57 61
47 44 43 44 45 42 40 39 37 35 34 32 29 28 29 28 27 27 26 25 26 26 27 27 27 27 27 28 29 30 32 34 35 37 38 40 42 44 47 51 55 59 62 66
47 46 44 43 42 40 39 37 35 34 32 30 28 27 27 27 26 26 26 26 26 27 27 27 26 26 27 29 30 32 33 35 36 38 40 42 45 49 53 56 60 63 67 69
46 46 44 44 43 42 41 39 36 34 33 31 29 27 26 26 27 27 27 27 27 27 27 26 26 27 29 31 32 33 34 36 38 40 43 46 50 54 57 61 64 67 69 72
44 43 42 41 40 37 36 36 35 34 32 29 27 24 24 26 27 28 28 29 29 28 27 27 27 29 31 32 33 34 36 38 41 44 47 51 55 58 62 65 68 70 72 74
39 39 39 38 37 36 35 35 35 34 32 30 27 26 25 28 29 29 30 30 30 28 27 27 29 31 32 33 35 36 38 41 44 48 51 55 59 62 66 68 70 72 74 76
35 34 34 35 34 35 35 36 37 35 34 32 30 28 28 30 30 30 31 30 29 28 28 29 31 32 34 35 37 39 41 45 48 52 56 60 63 66 68 70 72 74 75 77
29 31 32 32 33 34 35 33 33 33 32 32 31 26 29 31 31 31 30 29 28 29 30 31 32 34 35 37 39 41 45 48 52 56 61 64 66 68 70 72 73 74 75 77
26 27 28 30 32 32 29 30 31 31 31 32 30 28 29 29 29 29 28 28 29 30 31 32 34 35 36 38 41 44 48 53 57 61 64 66 68 69 70 71 72 74 76 78
27 25 25 25 26 26 25 26 27 27 27 28 27 26 27 27 27 27 27 28 30 31 32 33 34 35 37 40 44 48 52 57 61 64 66 67 68 68 69 71 72 75 77 81
27 26 25 23 22 21 20 22 24 25 24 24 24 24 25 26 27 27 28 30 31 32 32 33 34 37 39 43 47 52 57 61 63 65 66 66 66 67 69 71 74 77 81 85
25 25 24 22 21 19 19 21 22 22 20 21 23 24 25 26 28 29 30 31 31 32 32 34 36 39 43 47 52 56 60 63 64 64 63 64 65 67 70 73 77 81 85 87
24 24 23 22 22 19 19 20 21 21 22 23 24 25 27 28 29 30 30 30 31 32 33 36 39 43 47 52 56 59 61 61 61 61 61 63 66 69 74 78 82 85 88 88
23 22 21 20 18 18 19 20 20 21 23 24 25 27 27 28 28 28 29 30 31 34 36 40 44 48 52 55 58 59 58 58 58 59 61 65 69 74 78 82 85 87 87 85
19 18 17 16 15 15 16 17 18 20 22 23 25 26 26 26 27 29 30 32 34 37 41 45 49 52 55 56 56 55 55 55 57 60 64 69 73 78 82 85 87 86 84 81
16 15 13 12 12 13 14 16 18 20 22 24 25 26 27 28 29 31 33 35 38 42 45 49 51 54 54 53 52 52 53 55 59 64 69 73 78 82 84 86 85 83 80 76
15 14 13 13 14 15 17 19 21 23 25 26 27 28 29 31 32 34 36 39 42 45 48 50 51 51 50 49 50 52 55 59 64 69 74 78 82 85 86 85 82 78 73 70
Wind_Direction
201 201 204 208 210 212 212 212 213 215 219 220 218 213 225 230 225 228 230 228 226 225 228 233 239 247 255 262 268 271 274 276 277 278 279 281 283 285 288 290 292 294 295 296
198 199 201 206 209 210 209 208 209 214 218 219 217 213 223 231 228 229 232 231 228 227 229 235 243 250 258 264 269 271 273 275 277 278 280 282 284 287 289 291 293 295 296 298
196 195 198 204 208 208 207 206 209 214 217 218 217 215 221 229 231 231 232 232 231 231 234 240 247 255 261 265 268 269 271 274 276 278 281 284 286 288 290 292 294 295 297 299
193 192 195 203 206 205 205 205 209 214 216 216 216 216 222 228 232 232 233 234 235 236 240 246 253 258 262 265 266 268 270 273 276 280 283 285 287 289 291 293 295 296 298 299
190 190 193 201 203 203 203 205 210 214 216 216 216 218 222 229 232 233 234 236 238 240 244 250 256 260 263 266 267 270 272 276 279 282 284 286 289 291 292 294 295 296 297 297
187 190 193 196 199 201 201 206 210 214 217 216 215 218 216 229 233 235 236 238 240 243 247 253 258 262 265 268 270 273 276 278 281 283 286 288 290 292 293 293 294 294 295 295
183 187 193 196 198 200 201 206 209 213 216 215 215 219 216 225 232 237 239 241 243 245 249 254 259 263 266 270 273 276 278 280 283 285 288 290 291 292 293 293 294 294 295 297
183 185 191 196 200 200 202 206 210 213 215 214 216 220 221 224 230 236 240 243 246 249 252 255 259 262 266 270 273 276 278 281 284 287 289 291 292 293 293 294 294 296 297 299
183 186 191 196 199 200 204 207 211 215 216 215 218 221 224 226 231 236 240 245 248 252 255 258 261 265 269 272 275 278 281 284 287 289 291 293 293 293 294 295 296 298 299 301
184 186 192 197 200 203 206 209 213 214 214 216 217 220 225 229 234 239 243 248 252 256 259 262 265 268 271 274 277 280 284 287 290 292 293 294 294 295 296 297 299 301 303 304
185 188 192 197 201 204 207 209 212 214 215 216 218 221 226 232 237 242 247 252 255 259 262 264 266 269 273 277 281 285 288 290 292 293 294 294 295 297 299 300 302 304 305 306
189 193 196 200 203 207 210 213 215 217 218 219 221 224 229 235 241 246 250 254 258 261 264 265 267 271 276 280 285 288 291 292 293 294 295 296 298 300 302 304 305 306 306 307
193 197 200 203 206 209 213 213 215 217 219 219 221 227 233 240 245 249 253 257 260 263 265 267 269 274 279 284 288 290 291 292 293 295 297 299 301 304 305 306 307 307 307 307
198 202 205 209 212 214 216 217 220 222 223 223 225 232 238 243 247 251 255 259 262 264 267 269 272 278 282 286 288 290 291 293 295 298 300 302 304 306 306 307 307 307 307 307
200 204 207 211 214 216 218 221 223 226 227 230 230 234 237 242 246 250 254 257 261 265 268 271 275 280 284 286 288 290 292 295 298 300 302 304 306 307 307 308 308 308 308 308
203 206 210 214 217 220 222 221 223 226 229 232 235 236 239 244 248 251 253 257 261 265 268 272 277 281 284 287 289 292 294 297 300 302 304 306 307 308 308 308 308 308 309 309
203 205 209 214 219 222 223 223 227 230 233 237 239 239 242 246 248 251 254 257 261 264 269 274 278 283 286 288 291 293 296 299 302 304 306 307 307 308 307 308 308 309 310 311
200 204 209 214 219 223 223 226 230 233 235 238 241 241 244 247 250 252 255 258 261 266 271 276 280 283 286 289 292 295 299 301 304 305 306 307 307 307 308 309 310 311 312 313
196 201 206 211 219 222 224 227 231 234 236 239 241 242 245 248 251 253 257 261 265 270 273 277 280 283 286 290 294 298 301 303 305 306 306 307 307 308 309 310 311 312 313 314
195 199 206 213 218 219 220 225 229 232 235 239 242 244 246 249 253 257 261 266 271 273 275 278 280 284 288 293 297 300 302 304 305 306 307 308 309 310 311 312 313 314 315 315
196 200 207 215 221 221 220 225 229 234 234 238 243 247 251 255 259 262 267 270 271 273 275 278 283 288 293 297 300 302 303 305 306 307 309 310 311 312 313 314 315 315 316 316
204 208 213 219 224 221 224 229 234 239 241 244 249 253 256 260 263 265 267 269 271 274 278 283 288 293 296 299 301 302 304 306 308 309 311 311 312 314 315 316 316 316 316 316
207 211 215 221 225 225 229 235 240 245 249 252 255 258 260 262 263 265 268 270 273 278 283 288 292 295 297 300 302 304 306 308 310 311 312 314 315 316 317 317 317 317 316 316
203 208 212 218 223 229 234 241 247 252 255 256 258 261 262 263 265 268 271 274 279 283 287 291 294 296 299 302 304 306 308 310 312 313 314 316 317 318 318 318 317 317 316 316
197 204 210 218 227 237 245 251 256 258 260 262 263 264 265 267 269 272 275 279 283 286 289 293 296 299 301 304 306 308 310 312 314 315 316 318 318 319 319 318 317 317 317 317
207 215 225 234 243 251 257 259 260 262 263 264 265 266 267 269 272 275 278 282 285 289 292 296 298 301 304 306 308 310 312 314 316 317 318 319 319 319 318 318 317 317 318 318
Height
5654 5670 5682 5696 5709 5721 5731 5742 5749 5754 5757 5763 5768 5773 5775 5778 5783 5785 5787 5788 5790 5791 5793 5794 5795 5796 5796 5796 5796 5795 5794 5793 5791 5790 5788 5787 5785 5783 5780 5777 5774 5771 5767 5764
5650 5664 5681 5693 5704 5715 5726 5734 5742 5746 5751 5757 5764 5769 5771 5774 5778 5780 5782 5784 5785 5787 5788 5790 5790 5791 5791 5790 5790 5789 5788 5787 5786 5784 5783 5781 5779 5776 5773 5770 5767 5763 5760 5756
5647 5665 5678 5689 5698 5709 5719 5729 5736 5741 5746 5753 5760 5765 5767 5770 5773 5775 5777 5779 5781 5782 5784 5785 5785 5785 5785 5785 5784 5783 5782 5781 5780 5778 5777 5774 5772 5769 5766 5763 5759 5756 5752 5749
5645 5661 5674 5684 5695 5706 5716 5725 5730 5735 5741 5748 5755 5760 5763 5765 5767 5770 5773 5774 5776 5778 5779 5779 5780 5779 5779 5779 5778 5778 5777 5775 5774 5772 5770 5768 5765 5762 5759 5755 5752 5748 5744 5740
5643 5657 5669 5681 5693 5704 5713 5719 5724 5730 5736 5744 5750 5755 5759 5760 5762 5765 5768 5770 5771 5773 5774 5774 5774 5774 5773 5773 5773 5772 5771 5770 5768 5766 5763 5760 5757 5754 5751 5747 5744 5740 5736 5731
5645 5657 5667 5679 5689 5698 5706 5712 5718 5724 5731 5740 5745 5750 5754 5754 5756 5759 5762 5764 5766 5767 5768 5768 5768 5768 5768 5767 5767 5767 5765 5763 5761 5758 5756 5753 5750 5746 5743 5739 5735 5731 5726 5722
5641 5653 5664 5674 5682 5691 5699 5706 5714 5720 5726 5735 5740 5744 5749 5749 5751 5754 5757 5759 5760 5761 5762 5762 5762 5762 5762 5762 5761 5760 5758 5756 5753 5751 5748 5745 5742 5738 5734 5730 5726 5721 5717 5712
5639 5650 5661 5671 5679 5687 5694 5703 5711 5717 5723 5731 5735 5739 5743 5745 5746 5749 5751 5753 5754 5755 5756 5755 5755 5755 5755 5755 5754 5753 5751 5748 5746 5743 5740 5737 5733 5729 5725 5721 5716 5712 5707 5701
5640 5651 5660 5669 5677 5686 5692 5698 5706 5714 5720 5726 5730 5734 5737 5739 5741 5744 5746 5747 5748 5749 5749 5749 5749 5749 5748 5748 5746 5745 5743 5740 5738 5735 5732 5728 5724 5720 5716 5711 5706 5701 5696 5690
5639 5649 5657 5665 5674 5681 5689 5696 5702 5709 5715 5720 5725 5729 5732 5734 5736 5738 5740 5741 5742 5743 5743 5742 5742 5742 5741 5740 5739 5737 5735 5732 5729 5726 5723 5719 5715 5711 5706 5701 5696 5690 5683 5676
5638 5648 5656 5663 5671 5679 5686 5692 5698 5705 5710 5717 5721 5727 5727 5729 5731 5733 5734 5735 5736 5736 5736 5736 5735 5734 5734 5732 5731 5729 5727 5724 5721 5717 5714 5710 5705 5701 5696 5690 5683 5676 5669 5661
5638 5647 5654 5662 5670 5677 5683 5690 5696 5702 5707 5712 5716 5723 5721 5723 5725 5727 5728 5729 5729 5730 5730 5729 5729 5728 5727 5725 5723 5721 5718 5715 5712 5708 5704 5700 5695 5690 5684 5677 5670 5662 5654 5645
5638 5646 5652 5659 5667 5672 5677 5684 5690 5696 5701 5705 5710 5717 5717 5718 5719 5721 5722 5723 5723 5723 5723 5723 5722 5721 5719 5717 5715 5712 5710 5706 5703 5699 5694 5690 5684 5678 5671 5663 5655 5647 5638 5628
5638 5645 5653 5660 5666 5672 5678 5683 5688 5692 5697 5702 5707 5711 5712 5712 5713 5714 5715 5716 5717 5717 5717 5717 5716 5714 5712 5709 5707 5704 5701 5697 5693 5689 5684 5678 5672 5665 5657 5649 5640 5631 5621 5611
5637 5644 5650 5657 5663 5669 5674 5679 5683 5687 5692 5697 5701 5704 5705 5705 5707 5708 5709 5709 5710 5710 5710 5710 5708 5706 5704 5701 5699 5696 5692 5688 5684 5679 5673 5667 5660 5652 5644 5635 5625 5615 5605 5594
5636 5643 5649 5654 5659 5663 5668 5672 5676 5681 5685 5690 5693 5697 5699 5699 5701 5701 5702 5703 5703 5704 5703 5702 5700 5698 5696 5693 5690 5687 5683 5678 5673 5667 5661 5654 5646 5638 5629 5619 5609 5599 5589 5578
5636 5641 5646 5651 5655 5658 5663 5669 5673 5677 5680 5684 5687 5693 5692 5693 5694 5695 5696 5696 5697 5697 5696 5694 5692 5690 5688 5685 5681 5677 5673 5668 5662 5656 5649 5641 5632 5623 5614 5604 5594 5584 5573 5562
5634 5638 5643 5647 5652 5655 5663 5664 5667 5671 5674 5677 5681 5684 5685 5687 5687 5688 5689 5690 5690 5689 5688 5686 5684 5682 5679 5676 5672 5668 5663 5657 5650 5643 5635 5627 5618 5609 5599 5589 5579 5568 5557 5545
5630 5635 5639 5643 5647 5652 5657 5660 5663 5666 5669 5672 5675 5677 5678 5680 5681 5682 5682 5682 5682 5681 5680 5678 5676 5673 5670 5667 5662 5657 5652 5645 5638 5630 5622 5613 5604 5594 5584 5574 5564 5553 5541 5529
5627 5632 5637 5640 5644 5649 5654 5656 5657 5661 5664 5667 5668 5670 5672 5673 5674 5675 5674 5674 5674 5672 5671 5669 5667 5665 5661 5657 5652 5647 5640 5633 5625 5616 5608 5599 5589 5580 5570 5560 5548 5537 5524 5511
5624 5628 5632 5637 5640 5645 5649 5650 5653 5658 5661 5661 5662 5664 5665 5666 5667 5667 5666 5666 5665 5664 5662 5661 5659 5656 5652 5647 5641 5635 5628 5620 5611 5602 5593 5584 5575 5565 5555 5544 5532 5520 5507 5494
5622 5626 5630 5633 5636 5643 5644 5646 5649 5651 5653 5655 5655 5656 5657 5658 5658 5658 5658 5657 5656 5655 5654 5652 5649 5646 5641 5636 5630 5622 5615 5606 5598 5589 5580 5571 5561 5550 5539 5527 5514 5501 5487 5474
5619 5624 5627 5631 5636 5638 5639 5641 5643 5645 5646 5647 5648 5649 5650 5650 5650 5650 5650 5649 5648 5647 5645 5643 5639 5635 5630 5624 5617 5609 5601 5593 5584 5575 5566 5556 5546 5534 5522 5509 5496 5482 5468 5454
5617 5620 5624 5627 5630 5632 5633 5635 5637 5639 5640 5640 5641 5642 5642 5642 5642 5642 5642 5641 5640 5638 5636 5632 5628 5623 5617 5611 5604 5596 5588 5580 5571 5562 5552 5542 5531 5519 5506 5492 5477 5463 5448 5436
5614 5617 5620 5623 5626 5627 5629 5631 5632 5633 5633 5634 5634 5635 5635 5635 5635 5634 5634 5632 5631 5628 5625 5621 5616 5610 5604 5597 5590 5583 5575 5567 5558 5548 5538 5527 5514 5502 5489 5475 5460 5445 5431 5416
5612 5615 5618 5620 5622 5624 5625 5626 5626 5626 5627 5627 5627 5627 5627 5627 5627 5626 5624 5623 5620 5617 5613 5609 5603 5597 5591 5585 5578 5570 5563 5554 5544 5534 5523 5510 5498 5485 5471 5458 5445 5430 5417 5404